Al Udeid, Qatar

6:25 AM AST on July 25, 2016 (GMT +0300)
Al Udeid

Weather History for WKQIR - April, 2013

Change the Weather History Date:

Tuesday, April 16, 2013

  Actual Average Record
Temperature  
Mean Temperature 84 °F -  
Max Temperature 96 °F - - ()
Min Temperature 72 °F - - ()
Cooling Degree Days 19    
Growing Degree Days 34 (Base 50)    
Moisture  
Dew Point 42 °F    
Average Humidity 24    
Maximum Humidity 48    
Minimum Humidity 10    
Precipitation  
Precipitation 0.01 in - - ()
Sea Level Pressure  
Sea Level Pressure 29.78 in    
Wind  
Wind Speed 7 mph ()    
Max Wind Speed 14 mph    
Max Gust Speed -    
Visibility 6.2 miles    
Events      
T = Trace of Precipitation, MM = Missing Value Source: Averaged Metar Reports

Daily Weather History Graph

Daily Weather History Graph

Search for Another Location

Airport or City:

Trip Planner

Search our weather history database for the weather conditions in past years. The results will help you decide how hot, cold, wet, or windy it might be!

Date:

Astronomy

Apr. 16, 2013 Rise Set
Actual Time 5:11 AM AST 5:57 PM AST
Civil Twilight 4:48 AM AST 6:21 PM AST
Nautical Twilight 4:20 AM AST 6:48 PM AST
Astronomical Twilight 3:52 AM AST 7:17 PM AST
Moon 9:25 AM AST (4/16) 11:06 PM AST (4/16)
Length of Visible Light 13h 33m
Length of Day
12h 46m
Waxing Crescent, 30% of the Moon is Illuminated
Apr 16
Waxing Crescent
Apr 18
First Quarter
Apr 25
Full
May 2
Last Quarter
May 10
New

Hourly Weather History & Observations

Time (AST) Temp. Heat Index Dew Point Humidity Pressure Visibility Wind Dir Wind Speed Gust Speed Precip Events Conditions
12:55 AM 75.7 °F - 39.9 °F 28% 29.81 in 6.2 mi NNW 6.9 mph - N/A   Clear
1:55 AM 76.1 °F - 38.3 °F 26% 29.80 in 6.2 mi North 6.9 mph - N/A   Clear
2:55 AM 77.0 °F - 39.2 °F 26% 29.78 in 6.2 mi NE 4.6 mph - N/A   Clear
3:55 AM 74.3 °F - 38.8 °F 28% 29.79 in 6.2 mi South 4.6 mph - N/A   Clear
4:55 AM 73.4 °F - 38.7 °F 28% 29.80 in 6.2 mi North 6.9 mph - N/A   Clear
5:55 AM 72.3 °F - 38.8 °F 30% 29.83 in 6.2 mi WNW 4.6 mph - N/A   Clear
6:55 AM 78.8 °F - 41.9 °F 27% 29.84 in 6.2 mi North 3.5 mph - N/A   Clear
7:55 AM 82.8 °F - 49.3 °F 31% 29.86 in 6.2 mi Calm Calm - N/A   Clear
8:55 AM 86.9 °F 84.8 °F 53.2 °F 31% 29.86 in 6.2 mi East 6.9 mph - N/A   Clear
9:55 AM 90.9 °F - 48.9 °F 24% 29.86 in 6.2 mi ENE 5.8 mph - N/A   Clear
10:55 AM 94.3 °F - 38.3 °F 14% 29.81 in 6.2 mi ENE 12.7 mph - N/A   Clear
11:55 AM 95.2 °F - 35.2 °F 12% 29.80 in 6.2 mi ENE 10.4 mph - 0.01 in   Scattered Clouds
12:55 PM 96.1 °F - 34.3 °F 11% 29.77 in 6.2 mi NE 12.7 mph - N/A   Partly Cloudy
1:55 PM 96.3 °F - 32.0 °F 10% 29.76 in 6.2 mi ESE 10.4 mph - N/A   Clear
2:55 PM 95.5 °F - 31.5 °F 10% 29.75 in 6.2 mi East 11.5 mph - N/A   Clear
3:55 PM 95.0 °F - 32.4 °F 11% 29.73 in 6.2 mi East 11.5 mph - N/A   Clear
4:55 PM 92.5 °F - 34.3 °F 13% 29.74 in 6.2 mi ESE 13.8 mph - N/A   Clear
5:55 PM 88.7 °F - 37.9 °F 17% 29.73 in 6.2 mi East 12.7 mph - N/A   Clear
6:55 PM 85.8 °F - 43.7 °F 23% 29.74 in 6.2 mi ENE 9.2 mph - N/A   Clear
7:55 PM 84.0 °F - 45.1 °F 26% 29.73 in 6.2 mi East 9.2 mph - N/A   Clear
8:55 PM 82.8 °F - 45.1 °F 27% 29.73 in 6.2 mi East 9.2 mph - N/A   Clear
9:55 PM 81.5 °F - 52.5 °F 37% 29.72 in 6.2 mi ENE 9.2 mph - N/A   Clear
10:55 PM 81.3 °F 80.9 °F 54.9 °F 40% 29.71 in 6.2 mi East 8.1 mph - N/A   Clear
11:55 PM 81.7 °F 82.2 °F 60.1 °F 48% 29.72 in 6.2 mi NNE 6.9 mph - N/A   Clear